Regional Weather Roundup
Issued by NWS Burlington, VT

Home | Current Version | Previous Version | Text Only | Print | Product List | Glossary On
Versions: 1 2 3 4 5 6 7 8 9 10 11 12 13 14 15 16 17 18 19 20 21 22 23 24 25 26 27 28 29 30 31 32 33 34 35 36 37 38 39 40 41 42 43 44 45 46 47 48 49 50
000
ASUS41 KBTV 020030
RWRBTV
VERMONT REGIONAL WEATHER ROUNDUP
NATIONAL WEATHER SERVICE BURLINGTON VT
800 PM EDT MON SEP 01 2014

NOTE: "FAIR" INDICATES FEW OR NO CLOUDS BELOW 12,000 FEET WITH NO
SIGNIFICANT WEATHER AND/OR OBSTRUCTIONS TO VISIBILITY.

* THESE REPORTS ARE NOT UNDER NWS QUALITY CONTROL AND/OR DO NOT
  REPORT WEATHER SUCH AS PRECIPITATION AND FOG.

VTZ001>019-020100-
_____VERMONT_____


CITY           SKY/WX    TMP DP  RH WIND       PRES   REMARKS
BURLINGTON     CLEAR     79  65  62 SE6       29.87S
6HR MIN TEMP:  79; 6HR MAX TEMP:  88;

MONTPELIER     CLEAR     69  64  84 SW5       29.97R
6HR MIN TEMP:  69; 6HR MAX TEMP:  82;

MORRISVILLE    CLEAR     70  65  84 CALM      29.93R
6HR MIN TEMP:  70; 6HR MAX TEMP:  84;

ST. JOHNSBURY*   N/A     71  65  81 MISG      29.91R
6HR MIN TEMP:  71; 6HR MAX TEMP:  84;

MIDDLEBURY*    FAIR      75  66  73 SE5       29.90R
6HR MIN TEMP:  72; 6HR MAX TEMP:  85;

RUTLAND*       CLEAR     72  66  83 SE10      29.94R
6HR MIN TEMP:  72; 6HR MAX TEMP:  82;

SPRINGFIELD    CLEAR     71  68  90 CALM      29.94R
6HR MIN TEMP:  70; 6HR MAX TEMP:  85;

HIGHGATE*      FAIR      70  67  92 CALM      29.88S
6HR MIN TEMP:  71; 6HR MAX TEMP:  82;

NEWPORT*       FAIR      70  64  82 SW3       29.94R
6HR MIN TEMP:  71; 6HR MAX TEMP:  80;

BENNINGTON     PTCLDY    72  66  81 SE5       29.93S
6HR MIN TEMP:  71; 6HR MAX TEMP:  85;

SUTTON*          N/A     66 N/A N/A MISG        N/A
GALLUP MILLS*    N/A      0 N/A N/A MISG        N/A
UNION VILLAGE*   N/A     70 N/A N/A MISG        N/A
MT. MANSFIELD*   N/A     63 N/A N/A W7          N/A

_____LAKE CHAMPLAIN_____


CITY           SKY/WX    TMP DP  RH WIND       PRES   REMARKS
BURTON ISLAND*   N/A     75  68  78 N1          N/A
COLCHESTER RF*   N/A     77  68  73 E6          N/A
DIAMOND ISL*     N/A     77  68  73 S3          N/A

$$

NYZ007-026>031-035-052-083-020100-
_____NORTHERN NEW YORK_____


CITY           SKY/WX    TMP DP  RH WIND       PRES   REMARKS
PLATTSBURGH    CLEAR     72  67  84 CALM      29.87S
6HR MIN TEMP:  71; 6HR MAX TEMP:  83;

SARANAC LAKE   CLEAR     66  64  93 CALM      29.92F
6HR MIN TEMP:  66; 6HR MAX TEMP:  80;

MASSENA        CLEAR     71  70  96 CALM      29.85F
6HR MIN TEMP:  71; 6HR MAX TEMP:  82;

OGDENSBURG*    CLEAR     72  70  94 CALM      29.86R FOG
POTSDAM*       CLEAR     70  70 100 CALM      29.87R FOG
PARISHVILLE*     N/A     72 N/A N/A SE6         N/A
WATERTOWN      PTCLDY    76  67  73 CALM      29.85R
6HR MIN TEMP:  76; 6HR MAX TEMP:  84;

FT DRUM        CLEAR     75  65  72 S7        29.87S
6HR MIN TEMP:  75; 6HR MAX TEMP:  83;

ALBANY         PTCLDY    80  68  66 SE3       29.90S
6HR MIN TEMP:  80; 6HR MAX TEMP:  88;

GLENS FALLS    CLEAR     73  68  84 CALM      29.89S
6HR MIN TEMP:  73; 6HR MAX TEMP:  85;


$$
NHZ002-005-011-020100-
_____NEW HAMPSHIRE_____


CITY           SKY/WX    TMP DP  RH WIND       PRES   REMARKS
LEBANON        CLEAR     72  66  81 CALM      29.92R
6HR MIN TEMP:  70; 6HR MAX TEMP:  87;

KEENE          CLEAR     70  61  73 CALM      29.94R
6HR MIN TEMP:  72; 6HR MAX TEMP:  86;

MT WASHINGTON  FOG       54  54 100 W12         N/A  VSB 1/8
                   6HR MAX TEMP:  58;

PLYMOUTH       FAIR      67  67 100 CALM      29.93R
6HR MIN TEMP:  69; 6HR MAX TEMP:  85;

WHITEFIELD     CLEAR     69  64  84 CALM      29.94R
6HR MIN TEMP:  69; 6HR MAX TEMP:  83;


$$

_____REGIONAL QUEBEC LOCATIONS_____


CITY           SKY/WX    TMP DP  RH WIND       PRES   REMARKS
MONTREAL       PTCLDY    75  64  69 S2        29.86S
QUEBEC CITY    MOCLDY    63  57  82 NE8       29.92R
SHERBROOKE     CLEAR     66  64  94 CALM      29.92R

_____REGIONAL ONTARIO LOCATIONS_____


CITY           SKY/WX    TMP DP  RH WIND       PRES   REMARKS
OTTAWA         MOCLDY    73  68  83 S6        29.85R

______KEY______
VSB  - VISIBILITY IN MILES
WCI  - WIND CHILL INDEX
HX   - HEAT INDEX
$$



USA.gov is the U.S. government's official web portal to all federal, state and local government web resources and services.